Temp
23 24 24 22 20 18 21 23 23 24 26 25 23 25 26 24 26 24 22 22 22 22 20 20 21 20 19 18 18 18 18 18 18 17 18 18 18 18 17 17 17 17 17 16 17 16 17 16 16
23 23 23 16 19 19 19 22 25 25 25 23 24 25 25 25 23 21 21 22 22 21 20 20 20 20 19 18 18 18 17 17 17 18 18 18 18 18 17 17 17 17 17 16 16 16 16 16 16
23 22 19 17 16 18 20 23 24 24 24 25 26 23 24 24 23 21 23 23 21 21 20 20 20 20 19 18 18 18 17 17 18 18 18 18 18 18 18 18 17 17 17 16 16 16 16 15 16
22 19 17 19 19 19 21 22 23 23 26 26 25 25 24 24 24 24 24 23 22 21 20 20 20 19 19 19 19 18 17 17 17 17 18 18 18 18 18 18 18 18 17 16 16 16 16 15 15
20 15 18 18 18 20 20 21 23 23 24 26 25 25 24 24 24 24 23 22 22 21 20 20 20 19 19 19 19 18 17 17 17 17 17 18 18 18 18 18 18 17 17 16 16 16 16 16 16
18 15 16 17 18 20 19 21 22 23 24 25 25 23 23 23 23 23 23 23 22 22 21 20 20 19 19 19 18 18 17 17 17 17 17 17 18 18 18 18 17 17 17 17 16 16 16 16 16
17 15 16 17 18 19 20 22 23 23 23 25 23 23 23 22 24 23 23 23 22 22 21 20 20 19 19 19 19 18 18 17 17 17 17 17 18 18 18 17 17 17 17 17 17 17 17 17 16
16 16 17 16 18 19 22 24 24 23 24 24 23 23 24 23 25 23 22 22 22 21 21 20 20 19 19 19 19 19 18 18 18 18 17 17 17 18 18 17 18 17 17 17 17 17 17 17 17
16 16 15 17 17 20 21 23 23 24 24 24 24 22 24 25 24 22 21 20 20 20 20 20 20 19 19 19 19 18 18 18 18 17 17 17 18 18 18 18 18 18 17 17 17 17 17 18 18
15 15 17 18 18 19 21 21 21 22 21 23 24 24 22 22 23 21 20 19 19 19 20 20 20 20 19 19 19 18 18 18 18 18 18 18 18 18 18 18 18 18 18 17 17 17 17 17 17
15 16 18 19 19 20 19 20 21 22 20 21 23 24 22 21 20 21 21 21 21 21 20 20 20 20 20 19 19 18 18 18 18 18 18 18 18 18 18 18 18 18 18 17 17 17 18 17 17
15 16 17 18 19 19 19 20 20 21 21 22 21 22 23 21 19 20 20 22 21 21 21 21 21 20 20 20 19 19 18 18 18 18 18 18 18 18 18 18 18 17 17 17 17 17 17 17 16
14 15 17 17 17 18 18 18 18 19 19 20 20 20 20 20 20 22 23 24 23 22 21 21 21 21 21 20 20 19 19 19 19 18 18 18 18 18 18 17 17 18 17 17 17 17 17 16 16
15 15 15 17 17 17 18 18 18 19 19 19 19 20 20 19 19 21 22 23 23 25 22 22 21 21 21 20 20 20 19 19 19 19 19 18 18 18 18 17 17 17 16 16 16 16 16 15 15
15 14 15 15 16 17 18 18 18 18 18 18 18 18 19 19 21 20 24 24 24 25 25 22 22 21 21 20 20 20 19 18 18 19 18 17 18 18 17 17 16 16 15 15 15 15 15 15 14
14 14 13 16 16 17 18 17 19 19 19 19 18 17 18 18 19 22 23 24 24 23 23 22 22 21 21 20 20 19 18 19 18 18 18 18 17 17 17 17 16 15 15 15 15 14 13 13 13
13 13 13 15 17 18 17 17 19 19 18 17 17 17 18 17 17 20 21 22 22 22 22 21 21 21 20 19 19 18 18 18 18 18 17 17 17 16 17 16 15 15 15 14 13 13 12 11 12
13 12 13 13 17 16 16 17 17 18 18 18 18 19 17 17 17 19 20 20 21 21 21 20 20 20 19 18 18 17 17 17 17 17 17 17 16 16 16 15 15 14 14 13 12 12 11 10 10
12 12 12 13 15 14 14 15 16 17 17 18 16 17 17 16 16 18 19 20 20 20 20 20 19 18 19 18 16 16 15 15 16 16 16 16 15 15 15 14 14 13 12 11 10 10 10 9 8
11 11 12 12 14 14 14 14 15 16 17 18 18 18 17 16 15 15 17 18 18 19 19 19 18 17 17 17 17 17 16 14 14 15 15 15 15 14 14 13 13 12 11 10 9 9 8 8 7
11 11 12 12 13 14 13 14 16 17 17 18 19 19 19 17 15 14 13 15 17 17 17 17 16 16 17 18 17 15 15 14 13 14 13 13 13 13 13 12 11 11 10 9 8 8 7 7 7
11 12 12 13 12 11 14 14 15 16 17 18 18 18 17 15 15 14 13 13 15 16 16 16 16 16 17 17 17 17 15 13 13 13 13 12 12 12 12 11 10 10 9 8 8 7 6 6 5
12 13 13 13 12 11 13 12 13 16 17 17 16 17 16 15 15 14 13 14 15 15 15 15 16 16 16 17 19 17 15 14 13 12 12 12 11 11 10 10 9 9 8 7 7 6 6 6 5
13 12 12 12 12 11 13 12 15 16 16 16 17 17 15 14 14 13 12 13 13 14 15 15 16 16 16 17 17 17 15 13 12 11 11 11 10 10 9 9 8 8 7 7 6 6 5 5 4
12 11 11 12 12 12 14 13 14 16 16 17 18 17 14 14 13 12 12 11 11 13 14 15 15 14 15 15 15 15 15 14 13 12 11 10 10 9 8 8 7 7 6 6 6 5 5 4 4
11 11 11 11 11 11 14 13 15 16 18 19 18 16 13 14 14 13 13 12 11 11 13 13 14 14 14 14 14 14 14 13 12 11 11 10 10 9 8 7 7 6 6 5 5 5 4 4 3
10 11 12 12 13 12 13 14 16 16 15 15 15 15 13 14 13 13 12 11 11 11 12 14 14 13 14 14 13 13 12 12 11 10 10 9 8 8 7 6 6 5 5 5 4 4 3 3 3
11 12 11 10 11 11 12 13 15 16 17 17 15 15 14 14 13 12 11 10 10 11 12 13 13 13 12 13 12 12 11 11 10 10 9 8 7 7 6 6 5 5 4 4 3 3 3 2 2
10 11 12 12 10 9 11 14 15 16 17 15 14 14 14 13 13 11 11 10 9 10 11 11 12 12 11 11 11 10 10 10 9 9 8 8 7 6 6 5 5 4 4 3 3 3 2 2 1
12 12 11 11 9 11 11 14 16 15 16 16 14 14 14 13 12 12 10 9 9 9 10 10 10 11 10 10 10 9 9 8 8 8 7 6 6 5 5 4 4 3 3 3 2 2 1 1 1
Height
777 775 772 772 800 804 803 789 775 775 764 753 754 758 756 757 761 779 753 754 755 758 762 766 769 772 774 776 778 779 781 782 782 783 785 787 787 788 790 790 790 790 789 789 790 790 791 790 790
776 774 774 784 808 817 810 781 774 768 758 755 752 753 756 761 752 753 753 754 756 758 762 765 769 772 774 776 778 780 782 782 783 784 785 787 788 789 790 791 790 790 790 789 789 790 791 790 790
777 776 784 797 814 815 806 777 771 763 756 753 753 752 756 757 751 751 751 752 755 759 762 765 768 771 774 776 778 780 782 783 784 785 786 787 788 789 790 790 790 790 790 789 789 790 791 791 790
777 778 789 801 803 795 787 774 769 766 752 750 752 759 754 751 750 750 750 753 755 758 762 765 768 771 774 775 776 779 781 783 784 785 785 786 787 788 789 790 790 790 790 790 789 789 790 791 790
778 787 801 802 798 786 778 770 765 769 761 754 753 760 759 751 749 749 751 754 756 759 762 765 768 771 773 776 777 779 781 782 783 784 785 786 787 787 788 789 790 791 791 789 790 789 789 790 790
787 791 808 805 793 782 777 768 766 764 760 753 755 759 758 751 751 751 752 754 757 758 762 765 768 771 773 775 777 779 780 782 783 783 785 785 787 787 787 789 790 790 789 789 788 788 788 789 789
787 797 801 796 792 784 772 761 764 763 762 755 750 762 756 752 751 753 753 755 758 760 762 764 767 770 772 773 776 779 779 780 782 783 785 784 786 787 787 788 788 790 789 789 788 787 787 788 788
784 791 795 795 790 782 764 759 756 761 761 748 747 763 760 749 752 754 755 756 758 760 762 763 766 769 771 773 774 776 779 780 781 783 784 785 786 788 787 788 788 790 790 789 788 788 788 788 788
779 796 795 786 787 773 763 762 756 752 755 753 748 750 747 747 750 754 755 757 759 760 761 762 764 767 770 772 774 776 777 779 781 782 783 785 785 786 787 787 788 789 790 788 789 788 787 788 787
784 790 782 774 774 773 766 765 762 761 762 758 753 748 746 746 747 751 754 755 757 758 759 761 762 764 768 771 774 775 777 779 781 782 783 785 785 786 786 787 788 788 789 789 788 788 787 786 785
781 779 774 771 769 768 769 766 761 762 767 759 756 750 747 748 749 749 751 753 751 754 758 759 760 763 765 769 772 775 776 778 779 781 784 784 785 786 786 787 787 788 788 788 787 787 786 785 785
785 774 773 770 767 769 769 764 763 760 759 752 752 751 748 748 749 749 750 750 752 752 754 756 758 760 763 767 770 773 775 777 778 782 784 783 785 786 786 786 787 786 787 787 786 785 786 785 784
782 776 772 770 769 768 765 764 766 759 755 750 750 750 750 748 746 745 746 747 748 750 751 752 756 758 761 765 769 772 774 776 778 781 782 783 785 786 785 785 787 786 788 788 786 785 785 784 783
776 775 774 770 768 767 767 761 761 752 750 750 749 748 746 744 743 744 744 742 742 741 743 747 752 755 758 762 767 770 772 776 778 779 781 783 785 786 785 786 786 786 787 787 786 784 784 783 782
774 778 773 770 768 768 761 755 751 750 748 748 747 745 742 739 736 738 736 735 735 735 737 740 746 751 755 760 765 769 771 774 776 778 780 782 784 785 785 786 786 787 787 787 786 785 784 783 781
778 779 780 763 762 762 763 741 741 739 742 742 742 741 740 736 732 731 732 731 732 734 734 737 742 748 753 758 762 767 769 771 775 777 780 782 783 786 786 785 786 788 787 786 785 784 783 782 780
779 780 779 771 758 757 758 742 739 737 740 740 738 737 734 731 729 726 727 728 729 731 732 735 740 745 751 756 760 765 769 772 775 777 779 781 784 786 786 786 786 788 787 786 786 784 783 782 779
780 784 777 775 759 758 757 746 745 741 740 737 733 729 730 729 725 722 724 727 729 730 731 735 739 744 750 754 758 764 768 773 776 777 779 780 785 787 787 786 787 787 787 787 786 785 784 783 781
782 781 782 774 763 767 760 751 744 740 736 732 732 728 725 724 719 721 723 725 728 730 731 734 737 742 746 751 756 762 767 774 776 778 780 781 785 788 787 787 788 788 787 787 786 786 785 783 781
780 783 778 775 768 765 758 745 741 737 730 725 721 719 717 719 719 719 721 723 726 728 730 733 736 740 745 748 753 758 766 773 776 779 781 783 786 788 788 788 788 789 789 788 788 787 786 785 783
779 783 780 778 771 764 763 733 730 720 718 712 706 705 705 711 715 717 718 721 724 726 728 731 735 740 744 748 753 759 767 773 777 780 782 784 787 788 788 789 789 789 789 789 788 787 787 786 785
772 770 771 772 776 776 754 732 717 714 709 700 700 699 702 706 708 711 717 717 722 723 727 730 735 740 744 747 751 756 762 769 776 778 782 785 787 788 789 789 790 790 790 789 788 788 787 787 786
763 763 765 766 768 768 756 759 718 707 704 700 700 695 697 699 702 707 710 712 716 722 726 730 735 739 743 747 751 755 761 768 774 778 782 785 786 788 790 790 790 790 790 789 789 788 787 786 785
756 763 764 762 766 756 750 753 702 706 703 698 693 688 690 694 697 704 709 713 715 722 726 730 735 739 743 747 751 755 761 768 773 778 781 784 786 788 790 790 790 789 790 790 788 787 786 785 784
758 766 762 757 752 740 731 737 705 694 691 686 683 680 684 687 693 699 707 711 714 719 725 729 734 739 743 748 754 758 762 767 773 777 780 783 786 788 790 790 790 790 789 789 788 786 785 784 782
750 754 755 754 755 750 725 713 691 680 672 669 671 674 681 683 687 691 700 705 711 717 724 727 732 738 744 749 756 760 765 770 775 778 780 784 786 788 789 789 790 789 789 788 787 784 783 782 780
749 748 740 742 733 737 721 700 683 676 675 672 671 671 675 680 685 688 697 704 709 715 723 725 731 738 744 750 757 762 767 771 775 778 781 783 786 788 789 789 789 788 788 786 784 782 780 778 776
736 735 747 746 742 737 718 704 687 674 666 662 665 665 669 675 683 689 696 702 709 715 724 728 733 738 745 751 758 764 768 773 776 779 782 784 786 788 788 788 788 787 786 784 781 780 778 775 773
735 735 731 731 740 747 725 695 673 670 663 662 661 661 664 671 679 689 695 704 709 717 725 730 735 740 747 753 759 764 770 774 777 780 782 784 786 787 787 787 786 785 783 781 779 777 774 772 770
714 717 728 727 742 725 723 687 664 664 658 652 657 658 665 674 683 688 696 703 710 719 727 732 738 743 749 755 760 765 771 775 778 780 782 784 786 786 786 786 784 783 781 779 777 774 772 769 766
Wind_Speed
19 20 18 5 3 4 3 4 1 7 3 1 4 4 4 2 3 3 1 17 8 22 25 22 20 18 16 15 13 11 8 8 9 9 11 8 7 4 4 6 4 1 3 3 2 1 0 1 0
16 16 4 2 3 2 5 4 2 3 4 6 1 1 4 0 1 2 6 17 12 22 24 21 21 18 16 15 12 9 8 10 10 10 9 7 6 6 5 5 4 1 2 3 2 0 2 4 4
11 6 3 3 3 4 5 4 3 6 6 2 1 4 2 2 1 8 4 16 19 23 22 21 22 20 17 15 12 9 9 9 11 9 9 8 9 8 6 7 5 1 2 3 3 3 2 3 2
5 6 4 3 7 6 5 4 2 7 3 2 2 2 3 3 3 7 13 19 21 23 22 21 21 19 16 15 13 10 9 9 11 10 9 8 7 10 9 7 3 2 2 3 3 3 3 3 4
3 3 1 3 6 5 5 5 3 7 7 1 1 2 2 5 4 12 22 19 20 22 22 22 21 19 17 15 13 11 10 10 10 11 9 7 4 4 9 8 6 3 1 1 2 2 3 5 5
2 3 2 7 6 4 5 6 2 3 5 2 4 3 3 3 7 17 21 19 18 21 22 22 20 20 17 16 14 12 11 9 9 11 10 7 5 1 6 7 5 3 2 2 3 4 5 6 7
4 3 5 5 5 6 6 4 3 5 5 3 7 4 3 5 10 13 20 19 18 20 22 22 22 21 20 17 15 12 11 11 8 9 11 9 6 3 6 5 4 4 3 4 5 6 6 6 7
4 4 3 6 6 11 4 2 2 4 5 2 4 4 3 5 11 11 16 19 20 21 22 23 23 22 21 19 16 13 13 11 9 7 8 9 9 6 4 5 3 3 4 5 5 4 5 6 8
3 1 7 8 8 8 1 1 2 2 2 4 2 6 3 5 16 11 11 18 19 23 24 24 24 24 22 19 17 15 14 12 10 8 6 7 9 8 5 3 1 1 3 3 5 6 6 9 10
4 5 7 4 4 5 1 4 5 4 7 4 3 3 3 13 19 13 11 17 22 24 27 25 24 25 23 21 19 17 15 13 12 9 7 7 7 6 5 2 2 2 4 5 7 9 8 7 7
4 10 7 3 5 6 4 4 3 4 6 8 6 3 1 5 9 12 15 20 29 29 27 27 26 25 24 23 20 18 16 14 12 10 10 8 6 5 4 2 2 5 8 7 4 3 5 3 4
5 4 6 3 3 4 4 3 4 4 6 6 7 3 2 7 8 10 15 23 22 26 30 29 28 26 25 23 21 19 16 14 13 12 11 8 6 5 3 1 1 1 2 0 3 3 4 6 8
5 3 5 7 8 8 10 14 9 10 9 10 10 7 9 8 9 18 21 24 27 28 30 33 30 28 26 24 21 19 16 14 13 13 10 8 7 6 3 6 2 3 5 2 4 6 7 9 10
3 4 6 5 8 7 12 16 8 5 7 10 9 11 10 9 10 11 15 24 27 31 33 34 33 31 27 25 22 20 17 15 13 11 11 8 7 7 4 6 5 4 3 5 6 8 10 12 13
4 6 6 6 4 6 3 21 23 11 8 10 11 10 11 10 16 13 20 20 22 30 28 35 34 32 29 27 22 20 19 16 12 12 12 12 6 5 6 6 4 5 5 6 8 9 10 12 13
3 2 2 3 10 7 9 23 4 13 16 16 12 10 11 10 11 16 16 18 21 22 23 28 33 30 28 26 22 19 17 17 17 19 13 8 7 7 6 4 5 5 6 9 11 12 12 14 16
5 7 4 5 6 5 12 13 6 10 10 12 10 10 11 9 8 17 16 15 14 18 20 25 30 29 28 26 23 21 19 23 21 16 14 12 8 8 5 7 7 6 8 9 10 11 12 16 19
4 4 3 5 4 3 13 19 11 9 9 13 12 14 10 9 12 16 15 13 11 11 14 22 26 28 29 30 25 26 26 23 20 17 15 10 11 9 8 8 8 8 8 9 10 10 11 11 20
5 5 5 4 7 6 8 15 14 10 11 15 11 11 11 9 5 11 13 13 13 14 17 20 27 30 33 32 31 29 28 23 20 17 15 14 12 9 9 9 7 8 9 10 11 10 12 12 20
11 13 16 7 9 9 12 21 15 12 16 13 15 15 14 5 7 8 12 14 16 18 18 21 26 34 35 35 30 32 29 22 21 19 17 15 12 10 9 8 8 8 8 9 10 12 10 10 15
10 12 10 13 9 13 12 29 21 18 17 17 17 16 15 12 11 8 9 17 17 18 20 24 29 34 34 33 30 32 26 25 22 19 18 14 11 9 8 7 7 7 7 8 9 11 12 10 11
19 9 13 12 5 6 5 12 8 6 16 19 17 15 12 10 7 7 7 12 20 20 22 26 31 33 33 33 33 34 29 24 21 20 18 14 10 8 7 6 6 6 6 7 8 9 10 9 8
10 7 10 10 7 7 15 8 6 11 18 14 10 12 12 12 14 12 13 18 24 23 27 29 33 32 33 32 29 30 30 23 25 21 18 14 10 7 5 5 5 5 6 6 7 8 9 9 8
1 9 7 7 8 14 11 12 16 12 12 8 9 12 11 11 11 8 9 18 22 25 29 32 33 32 31 30 29 30 31 31 27 22 18 13 9 7 4 4 4 5 4 5 7 8 9 10 11
12 5 3 4 7 8 8 11 24 6 7 12 13 13 10 12 13 14 13 12 21 28 31 34 34 30 27 26 26 28 29 29 27 23 18 13 9 5 3 3 3 4 5 6 8 10 11 12 14
16 15 5 6 4 4 12 10 9 15 24 20 18 7 8 14 15 17 16 16 20 26 30 31 34 30 26 27 26 25 26 25 21 18 15 10 7 4 2 2 3 4 6 7 10 12 14 15 15
5 11 19 8 8 4 5 7 6 9 11 11 10 9 13 14 15 17 15 17 21 26 29 35 34 30 28 27 26 25 24 22 20 17 13 10 6 3 1 2 4 5 7 10 13 15 16 17 16
17 7 4 6 5 7 7 6 8 5 15 14 12 11 13 14 15 15 13 17 19 26 28 31 32 32 30 28 26 24 22 20 17 15 12 8 5 2 1 3 5 7 10 12 15 16 17 16 17
7 13 7 4 5 4 4 8 4 8 12 10 10 9 14 16 16 14 14 18 22 27 28 30 31 31 30 28 26 24 21 18 16 12 9 6 3 1 2 5 7 10 13 15 17 18 16 18 20
13 14 17 4 5 7 5 10 2 9 15 7 7 11 12 13 13 14 14 17 21 24 27 30 30 31 28 26 25 22 20 17 14 10 7 5 2 2 4 6 9 12 15 17 18 16 19 20 22
Wind_Direction
327 334 330 21 38 59 275 266 233 314 327 268 295 256 177 84 156 199 35 171 164 168 172 179 175 174 170 164 164 166 159 150 155 155 164 151 152 146 144 139 144 116 60 53 213 164 356 264 329
330 335 6 80 97 68 271 268 266 247 257 310 238 68 30 292 145 154 135 186 176 168 172 178 176 175 177 173 170 170 167 154 149 152 160 173 159 150 138 172 175 114 30 40 58 103 267 268 281
328 340 72 94 125 186 220 223 300 281 291 9 25 61 137 192 360 175 182 168 167 170 174 177 177 178 178 176 177 177 173 169 165 162 167 174 172 170 170 187 203 222 24 48 69 68 32 15 352
335 10 28 120 232 245 226 284 275 312 275 65 98 27 326 265 180 206 168 165 168 173 176 177 180 184 186 181 177 178 177 181 182 178 177 182 185 210 205 209 227 224 34 74 65 62 11 322 312
42 64 215 238 246 243 249 266 290 280 288 349 42 198 241 309 251 165 162 169 171 174 177 179 183 186 190 186 182 183 180 183 188 188 189 190 206 237 210 207 216 209 325 49 359 345 322 307 299
46 102 132 231 246 242 265 242 259 234 265 268 93 119 249 277 168 165 171 175 177 174 178 183 186 191 195 192 189 187 180 183 186 187 191 199 207 169 178 196 196 221 251 291 311 302 303 300 299
149 123 216 224 254 289 236 193 238 239 271 218 148 132 276 288 204 178 181 182 185 182 183 188 191 195 196 195 193 194 185 184 180 187 196 207 206 184 171 193 216 247 281 294 310 315 315 316 317
129 131 219 222 217 260 229 217 250 154 269 298 144 176 233 228 205 182 190 193 194 191 192 192 194 197 199 200 198 197 196 195 188 190 202 219 221 207 182 188 204 274 299 319 332 347 347 340 333
116 172 228 218 187 234 16 172 305 306 277 315 257 154 243 191 171 174 171 190 196 198 199 199 201 200 203 204 203 200 200 202 205 207 212 216 206 196 189 179 206 321 336 345 335 333 334 332 331
167 216 230 226 216 261 274 325 339 10 327 303 315 328 43 165 167 169 178 190 200 203 203 205 205 203 205 206 205 204 204 208 211 209 205 197 182 188 198 194 221 283 299 308 319 321 319 322 320
214 241 264 304 247 255 253 256 252 260 270 229 231 219 160 144 176 187 205 208 208 212 210 209 207 206 204 206 207 208 208 210 210 202 201 191 190 192 188 192 321 297 294 298 286 303 329 352 7
268 252 243 311 279 299 282 282 266 233 242 273 266 302 257 186 200 213 225 231 224 220 218 215 209 206 204 206 206 208 207 204 199 196 201 194 190 183 176 178 266 90 101 155 97 52 6 349 346
228 252 277 277 272 278 286 271 252 249 265 278 281 267 250 238 230 226 234 245 246 234 228 220 211 207 204 205 206 206 203 202 200 204 203 208 208 197 177 142 144 98 108 70 13 5 342 337 343
278 266 267 276 274 265 271 274 282 233 248 267 263 260 257 235 228 239 244 252 254 239 233 222 214 211 206 204 207 206 203 203 206 206 199 186 186 174 198 138 121 101 49 27 8 358 351 346 342
270 296 291 234 232 250 327 268 251 259 257 253 263 248 251 242 266 239 263 266 254 231 230 219 210 210 208 205 204 202 205 204 196 180 169 160 176 174 148 131 106 59 35 10 1 358 351 346 349
296 262 283 251 197 228 160 250 227 224 242 251 245 244 250 251 254 269 267 257 242 234 227 213 204 203 203 199 190 194 188 182 167 153 156 165 158 159 149 117 90 51 20 8 3 4 2 0 358
196 258 214 321 220 226 204 276 252 232 242 255 255 257 254 267 271 262 243 228 226 227 221 203 197 193 190 182 180 174 169 153 149 145 147 137 144 143 144 108 80 46 26 20 19 17 8 1 354
245 256 248 220 205 278 264 267 287 281 271 264 255 255 250 248 251 249 219 208 203 194 196 197 188 183 174 173 163 153 149 144 143 143 138 135 136 121 108 90 72 48 30 28 22 15 13 5 356
298 281 283 313 298 335 280 292 285 269 257 257 255 255 254 239 245 217 208 201 197 192 180 177 181 177 172 163 149 140 136 139 137 137 133 134 128 117 100 86 67 46 32 30 23 17 8 8 2
249 260 264 281 268 280 293 284 281 271 268 249 248 246 250 214 195 199 205 199 197 192 189 185 180 176 173 166 158 152 147 140 135 134 130 125 125 114 99 82 63 44 31 26 24 24 18 13 16
239 241 252 256 289 279 289 282 271 259 245 248 240 235 242 215 199 197 189 195 187 185 186 182 179 175 172 163 155 145 142 138 134 135 129 123 123 112 93 75 56 42 31 30 27 25 26 11 14
253 212 232 247 246 252 171 281 250 245 244 238 236 226 222 205 190 166 178 176 186 180 176 177 176 172 168 165 163 159 155 147 150 145 136 132 125 110 93 72 55 43 35 31 27 20 19 16 13
246 220 226 228 234 273 257 280 279 202 247 259 245 237 216 197 184 181 186 180 177 172 171 171 170 168 168 169 175 171 161 157 151 147 144 137 127 112 93 72 55 43 31 25 16 10 6 2 354
215 229 261 241 231 248 233 221 269 241 234 250 242 237 213 192 181 157 143 160 160 166 167 166 166 165 169 171 171 170 162 156 154 154 149 142 132 118 91 64 47 36 16 7 2 356 351 348 345
201 231 233 222 210 239 199 219 246 256 259 241 230 232 207 182 166 155 158 160 159 165 167 167 167 163 167 170 170 168 165 166 165 163 159 152 145 126 95 54 35 19 6 356 349 349 346 341 336
191 200 213 212 223 231 208 238 241 221 232 233 240 233 186 182 176 167 170 164 161 161 166 165 167 160 164 164 164 165 165 166 166 164 159 156 149 132 83 37 10 2 353 348 345 346 342 335 332
171 211 217 258 277 268 235 290 291 242 244 237 233 193 183 180 179 170 161 160 155 157 165 165 165 159 161 161 161 161 163 163 160 156 154 149 145 128 81 14 358 354 349 348 344 343 338 332 332
217 151 190 199 212 246 256 253 240 288 245 232 218 209 192 178 171 163 156 148 148 156 165 164 164 160 159 159 160 159 158 158 154 152 148 143 137 130 48 360 354 354 352 347 344 339 335 334 332
192 228 219 256 197 217 289 265 233 280 287 220 211 193 170 169 166 158 148 144 139 151 159 158 159 156 155 157 156 154 152 152 150 148 141 137 130 87 7 359 357 352 346 345 340 337 339 332 328
207 206 207 217 228 235 297 261 238 14 319 211 172 161 163 158 154 148 141 135 135 141 153 156 155 154 155 155 153 152 152 151 147 144 136 130 114 42 10 360 353 348 344 340 340 338 334 330 326